Content
SEND FEEDBACK

Daily
Averages
Monthly
Summary
United States of America

AGNEW, NEBRASKA


Home > North America > United States > Nebraska
Elevation: 1260 feet     Latitude: 41 01N     Longitude: 096 48W

WEATHER
 
SELECT A DAY
Number of Records: 202,865;   Date Range: 1/1/95 - 7/29/14
 
SHARE

PRINT THIS DATA

[ ← Previous Day ]
WEATHER ALMANAC - FEBRUARY 5, 2013
[ Next Day → ]
[ °C ]   °F
Weather ElementAverageHighLow
Temperature37.3 °F52 °F (1:54 pm)25 °F (3:54 am)
Dewpoint25.9 °F30 °F (10:54 am)23 °F (3:54 am)
Humidity67.5 %92 % (3:54 am)35 % (3:54 pm)
Barometer30.01 in30.10 in (10:54 pm)29.91 in (2:54 am)
Wind Speed6.8 mph18.4 mph (10:54 am)
Wind Gust19.6 mph (3:54 pm)
Weather ElementAverage
Visibility9.4 mi
Wind DirectionSSW (200 °)

Weather ElementTotal
Precipitation---
Heating Degree Days26.5 (Base 65)
Averaged from 23 records on February 5, 2013
WEATHER CONDITIONS BREAKOUT
WIND DIRECTION BREAKOUT
WEATHER BY HOUR - FEBRUARY 5, 2013
[ °C ]   °F
Local TimeTemperatureDewpointHumidityBarometerVisibilityWind DirectionWind SpeedGust SpeedPrecipitationEventsConditions
1:54 AM28.0 °F25.0 °F88 %29.93 in8.0 miSSW (210°)4.6 mphOvercast
2:54 AM28.0 °F25.0 °F88 %29.91 in8.0 miSSW (200°)6.9 mphMostly Cloudy
3:54 AM25.0 °F23.0 °F92 %29.91 in7.0 miSouth (190°)6.9 mphClear
4:54 AM28.0 °F25.0 °F88 %29.91 in8.0 miSW (220°)4.6 mphMostly Cloudy
5:54 AM28.0 °F25.0 °F88 %29.91 in8.0 miCalmOvercast
6:54 AM28.0 °F26.1 °F92 %29.93 in9.0 miCalmOvercast
7:54 AM28.0 °F26.1 °F92 %29.94 in9.0 miCalmMostly Cloudy
8:54 AM37.9 °F28.9 °F70 %29.97 in10.0 miWest (280°)4.6 mphClear
9:54 AM45.0 °F28.9 °F53 %29.99 in10.0 miNW (310°)10.4 mphClear
10:54 AM46.9 °F30.0 °F52 %30.02 in10.0 miNNW (330°)18.4 mphClear
11:54 AM48.9 °F30.0 °F48 %30.03 in10.0 miNNW (330°)12.7 mphClear
12:54 PM51.1 °F28.0 °F41 %30.02 in10.0 miNW (320°)13.8 mphClear
1:54 PM52.0 °F27.0 °F38 %30.03 in10.0 miNNW (340°)16.1 mphClear
2:54 PM52.0 °F26.1 °F37 %30.02 in10.0 miNNW (330°)17.3 mphClear
3:54 PM52.0 °F25.0 °F35 %30.04 in10.0 miNNW (340°)15.0 mph19.6 mphClear
4:54 PM50.0 °F24.1 °F36 %30.04 in10.0 miNNW (340°)8.1 mphClear
5:54 PM41.0 °F26.1 °F55 %30.05 in10.0 miCalmClear
6:54 PM33.1 °F24.1 °F70 %30.07 in10.0 miNorth (350°)4.6 mphClear
7:54 PM33.1 °F26.1 °F75 %30.09 in10.0 miNorth (350°)4.6 mphClear
8:54 PM28.0 °F23.0 °F81 %30.09 in10.0 miNorth (10°)4.6 mphClear
9:54 PM30.0 °F24.1 °F79 %30.09 in10.0 miCalmClear
10:54 PM30.9 °F25.0 °F79 %30.10 in10.0 miSSE (150°)3.5 mphPartly Cloudy
11:54 PM32.0 °F25.0 °F75 %30.09 in10.0 miCalmClear
Hourly data recorded from KLNK, located miles away from Agnew, Nebraska







STORIES FROM OUR PARTNERS